TimeMDT,TemperatureF,Dew PointF,Humidity,Sea Level PressureIn,VisibilityMPH,Wind Direction,Wind SpeedMPH,Gust SpeedMPH,PrecipitationIn,Events,Conditions,WindDirDegrees,DateUTC
12:21 AM,69.8,50.0,49,30.05,10.0,NNW,17.3,25.3,N/A,,Overcast,330,2013-06-15 06:21:00
12:29 AM,66.2,51.8,60,30.05,10.0,NNW,13.8,-,N/A,Thunderstorm,Mostly Cloudy,330,2013-06-15 06:29:00
12:46 AM,64.4,51.8,64,30.02,10.0,North,15.0,-,N/A,,Partly Cloudy,360,2013-06-15 06:46:00
12:53 AM,64.9,51.1,61,29.84,10.0,NNE,20.7,24.2,N/A,,Clear,20,2013-06-15 06:53:00
1:53 AM,63.0,50.0,63,29.87,10.0,North,11.5,-,N/A,,Clear,10,2013-06-15 07:53:00
2:53 AM,64.0,46.9,54,29.85,10.0,NNE,12.7,-,N/A,,Clear,30,2013-06-15 08:53:00
3:53 AM,55.9,48.0,75,29.86,10.0,East,6.9,-,N/A,,Clear,100,2013-06-15 09:53:00
4:53 AM,59.0,48.0,67,29.90,10.0,NNW,13.8,24.2,N/A,,Clear,330,2013-06-15 10:53:00
5:53 AM,55.9,48.9,77,29.92,10.0,NW,9.2,-,N/A,,Partly Cloudy,310,2013-06-15 11:53:00
6:53 AM,59.0,48.9,69,29.94,10.0,NNW,11.5,-,N/A,,Scattered Clouds,330,2013-06-15 12:53:00
7:53 AM,64.0,51.1,63,29.95,10.0,NNW,11.5,-,N/A,,Clear,340,2013-06-15 13:53:00
8:53 AM,68.0,53.1,59,29.95,10.0,NNE,11.5,-,N/A,,Mostly Cloudy,30,2013-06-15 14:53:00
9:53 AM,71.1,55.9,59,29.96,10.0,NNE,8.1,-,N/A,,Mostly Cloudy,30,2013-06-15 15:53:00
10:44 AM,69.8,55.4,60,30.10,10.0,NE,11.5,-,N/A,,Overcast,50,2013-06-15 16:44:00
10:53 AM,69.1,55.9,63,29.97,10.0,NE,12.7,-,N/A,,Overcast,50,2013-06-15 16:53:00
11:00 AM,69.8,55.4,60,30.11,10.0,NE,10.4,-,N/A,,Overcast,50,2013-06-15 17:00:00
11:50 AM,71.6,55.4,57,30.10,10.0,NE,9.2,-,N/A,,Scattered Clouds,40,2013-06-15 17:50:00
11:53 AM,73.0,57.0,57,29.95,10.0,NNE,10.4,-,N/A,,Scattered Clouds,20,2013-06-15 17:53:00
12:22 PM,71.6,55.4,57,30.10,10.0,NE,9.2,-,N/A,,Mostly Cloudy,40,2013-06-15 18:22:00
12:53 PM,75.0,55.9,51,29.96,10.0,Variable,5.8,-,N/A,,Partly Cloudy,0,2013-06-15 18:53:00
1:53 PM,77.0,55.0,47,29.93,10.0,ENE,12.7,16.1,N/A,,Scattered Clouds,60,2013-06-15 19:53:00
2:53 PM,77.0,54.0,45,29.92,10.0,NNE,8.1,-,N/A,,Scattered Clouds,20,2013-06-15 20:53:00
3:53 PM,79.0,55.0,44,29.91,10.0,NE,11.5,-,N/A,,Scattered Clouds,40,2013-06-15 21:53:00
4:53 PM,79.0,54.0,42,29.90,10.0,East,6.9,-,N/A,,Scattered Clouds,90,2013-06-15 22:53:00
5:53 PM,80.1,52.0,38,29.90,10.0,ENE,9.2,-,N/A,,Clear,60,2013-06-15 23:53:00
6:51 PM,73.4,53.6,50,30.07,10.0,NNE,11.5,-,N/A,Thunderstorm,Clear,30,2013-06-16 00:51:00
6:53 PM,73.9,54.0,50,29.95,10.0,NE,10.4,-,N/A,Thunderstorm,Clear,40,2013-06-16 00:53:00
7:14 PM,73.4,53.6,50,30.08,10.0,NNE,12.7,-,N/A,,Partly Cloudy,20,2013-06-16 01:14:00
7:53 PM,73.9,54.0,50,29.89,10.0,East,17.3,-,N/A,,Clear,90,2013-06-16 01:53:00
8:53 PM,68.0,53.1,59,29.91,10.0,East,6.9,-,N/A,,Clear,90,2013-06-16 02:53:00
9:53 PM,64.0,52.0,65,29.94,10.0,ESE,9.2,-,N/A,,Clear,120,2013-06-16 03:53:00
10:53 PM,63.0,54.0,72,29.96,10.0,East,6.9,-,N/A,,Clear,100,2013-06-16 04:53:00
11:53 PM,63.0,55.9,78,29.94,10.0,East,6.9,-,N/A,,Clear,80,2013-06-16 05:53:00